Air Resources Laboratory banner image
Air Resources Laboratory web site National Oceanic and Atmospheric Administration (NOAA)

tx zone


SCZ050-WAZ558-NCZ071-TXZ119-213-PAZ071-DCZ001-FLZ074-172-MI076-
NYZ176-178-MAZ016-IL014-TNZ027-NJZ106-GAZ044-MD014-211200-

...Gateway Observations for Charleston International...

CITY           SKY/WX    TMP DP  RH WIND       PRES   REMARKS
Chas Airport   FAIR      46  41  82 N8        30.19R
Seattle        CLOUDY    50  32  50 E12       29.85F
Charlotte      FAIR      34  33  96 CALM      30.22R
Dallas DFW     PTCLDY    35  31  85 CALM      30.33R
Dallas Love    PTCLDY    36  32  85 CALM      30.35S
Philladelphia  FAIR      34  28  79 W8        30.12S WCI  27
Wash National  FAIR      34  26  72 S9        30.16R WCI  27
Baltimore      FAIR      29  25  85 CALM      30.14R
Miami          FAIR      72  70  93 VRB6      30.08R
Detroit        CLOUDY    35  25  66 W12       30.06R WCI  27
Newark         FAIR      34  24  67 SW10      30.08R WCI  26
Laguardia      FAIR      38  24  57 SW10      30.06S WCI  31
J F K          FAIR      37  26  64 W17       30.09R WCI  27
Boston Logan   MOCLDY    32  24  72 SW9       30.00S WCI  24
Ft. Lauderdale PTCLDY    70  70 100 NW5       30.07R
Chicago O'Hare CLOUDY    31  24  75 W8        30.14R WCI  23
Chicago Midway CLOUDY    31  23  72 W6        30.15R WCI  25
Houston Bush   MOCLDY    42  41  96 CALM      30.31F
Houston Hobby  MOCLDY    46  41  82 NE9       30.29F
Nashville      FAIR      29  25  85 CALM      30.35R
Atlanta        FAIR      35  31  85 NW8       30.23R WCI  29


GAZ044-118-TXZ119-213-NCZ071-DCZ001-MDZ014-506-PAZ021-071-NJZ106-
NYZ176-178-MAZ106-OHZ011-021-055-MIZ076-KYZ091-ILZ014-INZ047-
MNZ060-ONZ431-211200-

...Gateway Observations for Savannah International...

CITY           SKY/WX    TMP DP  RH WIND       PRES   REMARKS
Savannah Arpt  FAIR      44  41  89 CALM      30.19R
Atlanta        FAIR      35  31  85 NW8       30.23R WCI  29
Charlotte      FAIR      34  33  96 CALM      30.22R
Dallas DFW     PTCLDY    35  31  85 CALM      30.33R
Houston Bush   MOCLDY    42  41  96 CALM      30.31F
Wash National  FAIR      34  26  72 S9        30.16R WCI  27
Wash Dulles    FAIR      29  27  92 CALM      30.14S
Baltimore      FAIR      29  25  85 CALM      30.14R
Philadelphia   FAIR      34  28  79 W8        30.12S WCI  27
Newark         FAIR      34  24  67 SW10      30.08R WCI  26
Laguardia      FAIR      38  24  57 SW10      30.06S WCI  31
J F K          FAIR      37  26  64 W17       30.09R WCI  27
Boston         MOCLDY    32  24  72 SW9       30.00S WCI  24
Pittsburg      CLOUDY    32  24  72 SW13G25   30.10S WCI  22
Akron          FLURRIES  32  23  69 W15G22    30.09R WCI  22
Cleveland      FLURRIES  33  26  75 SW14      30.11R WCI  23
Cincinnati     CLOUDY    30  25  81 SW6       30.25S WCI  24
Columbus       CLOUDY    30  26  84 SW9       30.22R WCI  22
Detroit        CLOUDY    35  25  66 W12       30.06R WCI  27
Chicago O'Hare CLOUDY    31  24  75 W8        30.14R WCI  23
Minneapolis    CLOUDY    28  19  69 NE10G24   30.21R WCI  19
Indianapolis   FAIR      26  23  88 SW8       30.22R WCI  18
Toronto Canada FLURRIES  34  27  75 W23G31    29.87R WCI  22


SCZ050-WAZ558-NCZ071-TXZ119-213-PAZ071-DCZ001-FLZ074-172-MI076-
NYZ176-178-MAZ016-IL014-TNZ027-NJZ106-GAZ044-MD014-211200-

...Gateway Observations for Charleston International...

CITY           SKY/WX    TMP DP  RH WIND       PRES   REMARKS
Chas Airport   FAIR      46  41  82 N8        30.19R
Seattle        CLOUDY    50  32  50 E12       29.85F
Charlotte      FAIR      34  33  96 CALM      30.22R
Dallas DFW     PTCLDY    35  31  85 CALM      30.33R
Dallas Love    PTCLDY    36  32  85 CALM      30.35S
Philladelphia  FAIR      34  28  79 W8        30.12S WCI  27
Wash National  FAIR      34  26  72 S9        30.16R WCI  27
Baltimore      FAIR      29  25  85 CALM      30.14R
Miami          FAIR      72  70  93 VRB6      30.08R
Detroit        CLOUDY    35  25  66 W12       30.06R WCI  27
Newark         FAIR      34  24  67 SW10      30.08R WCI  26
Laguardia      FAIR      38  24  57 SW10      30.06S WCI  31
J F K          FAIR      37  26  64 W17       30.09R WCI  27
Boston Logan   MOCLDY    32  24  72 SW9       30.00S WCI  24
Ft. Lauderdale PTCLDY    70  70 100 NW5       30.07R
Chicago O'Hare CLOUDY    31  24  75 W6        30.15R WCI  25
Chicago Midway CLOUDY    31  23  72 W6        30.15R WCI  25
Houston Bush   MOCLDY    42  41  96 CALM      30.31F
Houston Hobby  MOCLDY    46  41  82 NE9       30.29F
Nashville      FAIR      29  25  85 CALM      30.35R
Atlanta        FAIR      35  31  85 NW8       30.23R WCI  29


GAZ044-118-TXZ119-213-NCZ071-DCZ001-MDZ014-506-PAZ021-071-NJZ106-
NYZ176-178-MAZ106-OHZ011-021-055-MIZ076-KYZ091-ILZ014-INZ047-
MNZ060-ONZ431-211200-

...Gateway Observations for Savannah International...

CITY           SKY/WX    TMP DP  RH WIND       PRES   REMARKS
Savannah Arpt  FAIR      44  41  89 CALM      30.19R
Atlanta        FAIR      35  31  85 NW8       30.23R WCI  29
Charlotte      FAIR      34  33  96 CALM      30.22R
Dallas DFW     PTCLDY    35  31  85 CALM      30.33R
Houston Bush   MOCLDY    42  41  96 CALM      30.31F
Wash National  FAIR      34  26  72 S9        30.16R WCI  27
Wash Dulles    FAIR      29  27  92 CALM      30.14S
Baltimore      FAIR      29  25  85 CALM      30.14R
Philadelphia   FAIR      34  28  79 W8        30.12S WCI  27
Newark         FAIR      34  24  67 SW10      30.08R WCI  26
Laguardia      FAIR      38  24  57 SW10      30.06S WCI  31
J F K          FAIR      37  26  64 W17       30.09R WCI  27
Boston         MOCLDY    32  24  72 SW9       30.00S WCI  24
Pittsburg      CLOUDY    32  24  72 SW13G25   30.10S WCI  22
Akron          FLURRIES  32  23  69 W15G22    30.09R WCI  22
Cleveland      FLURRIES  33  26  75 SW14      30.11R WCI  23
Cincinnati     CLOUDY    30  25  81 SW6       30.25S WCI  24
Columbus       CLOUDY    30  26  84 SW8       30.22R WCI  22
Detroit        CLOUDY    35  25  66 W12       30.06R WCI  27
Chicago O'Hare CLOUDY    31  24  75 W6        30.15R WCI  25
Minneapolis    CLOUDY    28  19  69 NE10G24   30.21R WCI  19
Indianapolis   FAIR      26  23  88 SW8       30.22R WCI  18
Toronto Canada FLURRIES  34  27  75 W23G31    29.87R WCI  22